Simultaneous Nadir Overpasses (SNOs) Predictions

Prediction of SNOs between GOES-15 and METOP-A Satellite Orbit:

Table of predicted SNOs for the next 14.0 days since TLE Epoch: 12/23/2016
Index Date Time (GOES-15) GOES-15 Lat,Lon METOP-A Lat,Lon Distance(km) Time Diff (sec)
1 12/25/2016 06:46:35 0.08,-134.98 -0.77,-138.82 437.40 80
2 12/26/2016 06:23:15 0.09,-134.94 0.32,-133.82 127.60 80
3 12/27/2016 18:44:47 -0.07,-134.89 0.71,-138.38 398.01 80
4 12/28/2016 18:21:29 -0.08,-134.85 -0.43,-133.39 166.83 80
5 12/30/2016 06:43:08 0.07,-134.79 -0.67,-137.97 363.14 80
6 12/31/2016 06:19:50 0.07,-134.75 0.48,-132.98 201.10 80
7 01/01/2017 18:41:22 -0.06,-134.68 0.55,-137.54 325.91 80
8 01/02/2017 18:18:03 -0.06,-134.63 -0.54,-132.54 238.22 80
9 01/04/2017 06:39:43 0.05,-134.56 -0.50,-137.14 292.60 80
10 01/05/2017 06:16:23 0.06,-134.52 0.59,-132.14 270.92 80
11 01/06/2017 18:37:56 -0.04,-134.43 0.44,-136.70 257.59 80




NCC Satellite Simultaneous Nadir Overpasses (SNOs) Prediction Service
